UTMN 2 (RS27S)

Last updated on Wed Oct 15 2025 00:03:08 GMT+0000 (Coordinated Universal Time)

1 57203U 23091AP 25287.31771679 .00015310 00000+0 62259-3 0 9993 2 57203 97.5451 346.9309 0008662 220.3721 139.6874 15.24597562126983
UTC large
Height (km)
Speed (km/s)
/
Latitude / Longitude
Inclination (degrees)
Orbital Period (minutes)
Azimuth
Elevation
Range (km)
Doppler Factor

Next 0 passes for location: London (51.5072 / 0.1276)

Sorry there are no passes over London.